When you browse on this site, cookies collect data to enhance your experience and personalize the content and advertising you see.
Visit our Privacy Policy to learn more. By continuing to use the site, you agree to this use of cookies and data.
  • In Portugal
  • List of Countries
  • For 7 days
  • Water Temperature
  • Satellite Maps
  • Weather Map
  • Weather Widgets
  • user-avatar
    Login

    Hourly Weather Herāt

    Today, 23 May, Thursday

    Time Temperature Precipitation Wind Pressure Humidity
    00:00 +16°C° 0 mm 8 mps 679 mmHg 35%
    01:00 +16°C° 0 mm 7 mps 679 mmHg 34%
    02:00 +15°C° 0 mm 7 mps 678 mmHg 33%
    03:00 +15°C° 0 mm 7 mps 678 mmHg 33%
    04:00 +14°C° 0 mm 6 mps 678 mmHg 32%
    05:00 +15°C° 0 mm 6 mps 678 mmHg 31%
    06:00 +15°C° 0 mm 6 mps 679 mmHg 30%
    07:00 +16°C° 0 mm 6 mps 679 mmHg 29%
    08:00 +19°C° 0 mm 6 mps 679 mmHg 29%
    09:00 +20°C° 0 mm 6 mps 679 mmHg 28%
    10:00 +22°C° 0 mm 6 mps 679 mmHg 28%
    11:00 +23°C° 0 mm 5 mps 679 mmHg 27%
    12:00 +23°C° 0 mm 5 mps 679 mmHg 25%
    13:00 +25°C° 0 mm 5 mps 679 mmHg 24%
    14:00 +25°C° 0 mm 5 mps 679 mmHg 23%
    15:00 +26°C° 0 mm 5 mps 679 mmHg 22%
    16:00 +26°C° 0 mm 5 mps 678 mmHg 22%
    17:00 +25°C° 0 mm 5 mps 679 mmHg 23%
    18:00 +22°C° 0 mm 6 mps 679 mmHg 24%
    19:00 +21°C° 0 mm 6 mps 679 mmHg 26%
    20:00 +21°C° 0 mm 6 mps 679 mmHg 27%
    21:00 +20°C° 0 mm 5 mps 679 mmHg 29%
    22:00 +19°C° 0 mm 5 mps 679 mmHg 31%
    23:00 +18°C° 0 mm 4 mps 679 mmHg 32%

    Tomorrow, 24 May, Friday

    Time Temperature Precipitation Wind Pressure Humidity
    00:00 +18°C° 0 mm 3 mps 679 mmHg 34%
    01:00 +17°C° 0 mm 2 mps 678 mmHg 35%
    02:00 +18°C° 0 mm 1 mps 678 mmHg 36%
    03:00 +18°C° 0 mm 1 mps 678 mmHg 38%
    04:00 +16°C° 0 mm 1 mps 678 mmHg 39%
    05:00 +18°C° 0 mm 1 mps 679 mmHg 36%
    06:00 +19°C° 0 mm 1 mps 679 mmHg 33%
    07:00 +21°C° 0 mm 1 mps 679 mmHg 30%
    08:00 +22°C° 0 mm 1 mps 680 mmHg 26%
    09:00 +24°C° 0 mm 1 mps 680 mmHg 22%
    10:00 +25°C° 0 mm 1 mps 680 mmHg 17%
    11:00 +27°C° 0 mm 1 mps 680 mmHg 16%
    12:00 +28°C° 0 mm 2 mps 680 mmHg 14%
    13:00 +29°C° 0 mm 3 mps 681 mmHg 13%
    14:00 +30°C° 0 mm 3 mps 680 mmHg 13%
    15:00 +30°C° 0 mm 3 mps 680 mmHg 14%
    16:00 +30°C° 0 mm 3 mps 680 mmHg 14%
    17:00 +29°C° 0 mm 3 mps 680 mmHg 15%
    18:00 +28°C° 0 mm 3 mps 680 mmHg 17%
    19:00 +27°C° 0 mm 3 mps 680 mmHg 18%
    20:00 +27°C° 0 mm 3 mps 680 mmHg 19%
    21:00 +26°C° 0 mm 3 mps 681 mmHg 20%
    22:00 +25°C° 0 mm 2 mps 681 mmHg 21%
    23:00 +25°C° 0 mm 2 mps 681 mmHg 21%

    Day after tomorrow, 25 May, Saturday

    Time Temperature Precipitation Wind Pressure Humidity
    00:00 +24°C° 0 mm 2 mps 681 mmHg 21%
    01:00 +24°C° 0 mm 2 mps 681 mmHg 21%
    02:00 +22°C° 0 mm 3 mps 680 mmHg 22%
    03:00 +22°C° 0 mm 3 mps 680 mmHg 23%
    04:00 +21°C° 0 mm 3 mps 680 mmHg 24%
    05:00 +22°C° 0 mm 3 mps 681 mmHg 23%
    06:00 +25°C° 0 mm 3 mps 681 mmHg 22%
    07:00 +26°C° 0 mm 3 mps 681 mmHg 22%
    08:00 +27°C° 0 mm 3 mps 682 mmHg 21%
    09:00 +28°C° 0 mm 3 mps 682 mmHg 20%
    10:00 +30°C° 0 mm 3 mps 682 mmHg 19%
    11:00 +32°C° 0 mm 4 mps 682 mmHg 18%
    12:00 +32°C° 0 mm 4 mps 682 mmHg 18%
    13:00 +33°C° 0 mm 5 mps 682 mmHg 17%
    14:00 +33°C° 0 mm 6 mps 681 mmHg 18%
    15:00 +33°C° 0 mm 7 mps 681 mmHg 18%
    16:00 +33°C° 0 mm 8 mps 681 mmHg 18%
    17:00 +31°C° 0 mm 8 mps 681 mmHg 21%
    18:00 +29°C° 0 mm 8 mps 681 mmHg 23%
    19:00 +28°C° 0 mm 7 mps 681 mmHg 25%
    20:00 +27°C° 0 mm 7 mps 681 mmHg 26%
    21:00 +27°C° 0 mm 7 mps 681 mmHg 27%
    22:00 +26°C° 0 mm 6 mps 682 mmHg 28%
    23:00 +24°C° 0 mm 6 mps 681 mmHg 29%

    26 May, Sunday

    Time Temperature Precipitation Wind Pressure Humidity
    00:00 +23°C° 0 mm 5 mps 681 mmHg 31%
    01:00 +22°C° 0 mm 5 mps 681 mmHg 32%
    02:00 +22°C° 0 mm 4 mps 680 mmHg 33%
    03:00 +21°C° 0 mm 4 mps 680 mmHg 35%
    04:00 +20°C° 0 mm 3 mps 680 mmHg 36%
    05:00 +22°C° 0 mm 4 mps 680 mmHg 33%
    06:00 +23°C° 0 mm 4 mps 681 mmHg 29%
    07:00 +25°C° 0 mm 4 mps 681 mmHg 26%
    08:00 +26°C° 0 mm 5 mps 681 mmHg 23%
    09:00 +28°C° 0 mm 5 mps 682 mmHg 19%
    10:00 +30°C° 0 mm 6 mps 682 mmHg 16%
    11:00 +32°C° 0 mm 6 mps 681 mmHg 14%
    12:00 +33°C° 0 mm 7 mps 681 mmHg 13%
    13:00 +33°C° 0 mm 7 mps 681 mmHg 12%
    14:00 +33°C° 0 mm 8 mps 681 mmHg 12%
    15:00 +33°C° 0 mm 8 mps 680 mmHg 12%
    16:00 +33°C° 0 mm 8 mps 680 mmHg 12%
    17:00 +32°C° 0 mm 8 mps 680 mmHg 14%
    18:00 +30°C° 0 mm 7 mps 680 mmHg 15%
    19:00 +28°C° 0 mm 6 mps 680 mmHg 16%
    20:00 +27°C° 0 mm 6 mps 680 mmHg 17%
    21:00 +26°C° 0 mm 5 mps 680 mmHg 18%
    22:00 +26°C° 0 mm 5 mps 680 mmHg 19%
    23:00 +25°C° 0 mm 5 mps 680 mmHg 20%

    27 May, Monday

    Time Temperature Precipitation Wind Pressure Humidity
    00:00 +23°C° 0 mm 4 mps 679 mmHg 21%
    01:00 +22°C° 0 mm 4 mps 679 mmHg 22%
    02:00 +22°C° 0 mm 4 mps 679 mmHg 22%
    03:00 +21°C° 0 mm 4 mps 679 mmHg 22%
    04:00 +21°C° 0 mm 4 mps 679 mmHg 23%
    05:00 +22°C° 0 mm 4 mps 679 mmHg 21%
    06:00 +25°C° 0 mm 4 mps 680 mmHg 19%
    07:00 +26°C° 0 mm 4 mps 680 mmHg 17%
    08:00 +28°C° 0 mm 5 mps 681 mmHg 14%
    09:00 +30°C° 0 mm 5 mps 681 mmHg 11%
    10:00 +33°C° 0 mm 6 mps 681 mmHg 8%
    11:00 +34°C° 0 mm 6 mps 681 mmHg 8%
    12:00 +35°C° 0 mm 6 mps 681 mmHg 8%
    13:00 +36°C° 0 mm 7 mps 680 mmHg 7%
    14:00 +37°C° 0 mm 8 mps 680 mmHg 8%
    15:00 +37°C° 0 mm 9 mps 680 mmHg 8%
    16:00 +35°C° 0 mm 9 mps 679 mmHg 8%
    17:00 +34°C° 0 mm 9 mps 679 mmHg 10%
    18:00 +33°C° 0 mm 8 mps 679 mmHg 11%
    19:00 +30°C° 0 mm 7 mps 679 mmHg 12%
    20:00 +29°C° 0 mm 7 mps 679 mmHg 13%
    21:00 +28°C° 0 mm 6 mps 680 mmHg 14%
    22:00 +27°C° 0 mm 5 mps 680 mmHg 15%
    23:00 +27°C° 0 mm 5 mps 679 mmHg 16%

    28 May, Tuesday

    Time Temperature Precipitation Wind Pressure Humidity
    00:00 +26°C° 0 mm 5 mps 679 mmHg 16%
    01:00 +25°C° 0 mm 5 mps 679 mmHg 17%
    02:00 +25°C° 0 mm 5 mps 679 mmHg 18%
    03:00 +23°C° 0 mm 5 mps 679 mmHg 18%
    04:00 +22°C° 0 mm 4 mps 679 mmHg 18%
    05:00 +25°C° 0 mm 5 mps 679 mmHg 17%
    06:00 +26°C° 0 mm 5 mps 680 mmHg 15%
    07:00 +28°C° 0 mm 6 mps 681 mmHg 14%
    08:00 +29°C° 0 mm 7 mps 681 mmHg 12%
    09:00 +32°C° 0 mm 7 mps 681 mmHg 10%
    10:00 +34°C° 0 mm 8 mps 681 mmHg 9%
    11:00 +35°C° 0 mm 9 mps 681 mmHg 9%
    12:00 +35°C° 0 mm 9 mps 681 mmHg 9%
    13:00 +37°C° 0 mm 10 mps 680 mmHg 9%
    14:00 +37°C° 0 mm 11 mps 680 mmHg 9%
    15:00 +37°C° 0 mm 11 mps 680 mmHg 10%
    16:00 +37°C° 0 mm 12 mps 680 mmHg 10%
    17:00 +34°C° 0 mm 11 mps 680 mmHg 11%
    18:00 +33°C° 0 mm 11 mps 680 mmHg 12%
    19:00 +32°C° 0 mm 10 mps 680 mmHg 12%
    20:00 +31°C° 0 mm 10 mps 680 mmHg 13%
    21:00 +29°C° 0 mm 9 mps 680 mmHg 13%
    22:00 +28°C° 0 mm 9 mps 680 mmHg 14%
    23:00 +28°C° 0 mm 9 mps 680 mmHg 14%
    Show more